Time,TemperatureF,DewpointF,PressureIn,WindDirection,WindDirectionDegrees,WindSpeedMPH,WindSpeedGustMPH,Humidity,HourlyPrecipIn,Conditions,Clouds,dailyrainin,SolarRadiationWatts/m^2,SoftwareType,DateUTC
2013-02-16 00:02:00,27.0,24.0,-100.00,ENE,70,2.0,4.0,88,0.00,,,0.00,1.000000,,2013-02-16 07:02:00,
2013-02-16 00:11:00,27.0,24.0,-100.00,ENE,70,2.0,4.0,88,0.00,,,0.00,1.000000,,2013-02-16 07:11:00,
2013-02-16 00:32:00,27.0,24.0,-100.00,East,82,2.0,4.0,88,0.00,,,0.00,1.000000,,2013-02-16 07:32:00,
2013-02-16 00:42:00,27.0,24.0,-100.00,East,82,2.0,4.0,88,0.00,,,0.00,1.000000,,2013-02-16 07:42:00,
2013-02-16 00:53:00,27.0,24.0,-100.00,East,82,2.0,4.0,88,0.00,,,0.00,1.000000,,2013-02-16 07:53:00,
2013-02-16 01:01:00,27.0,24.0,-100.00,East,82,2.0,4.0,88,0.00,,,0.00,1.000000,,2013-02-16 08:01:00,
2013-02-16 01:11:00,27.0,24.0,-100.00,East,82,2.0,4.0,88,0.00,,,0.00,1.000000,,2013-02-16 08:11:00,
2013-02-16 01:32:00,28.0,23.0,-100.00,East,98,3.0,6.0,81,0.00,,,0.00,1.000000,,2013-02-16 08:32:00,
2013-02-16 01:42:00,28.0,23.0,-100.00,East,98,3.0,6.0,81,0.00,,,0.00,1.000000,,2013-02-16 08:42:00,
2013-02-16 01:52:00,28.0,23.0,-100.00,East,98,3.0,6.0,81,0.00,,,0.00,1.000000,,2013-02-16 08:52:00,
2013-02-16 02:01:00,28.0,23.0,-100.00,East,98,3.0,6.0,81,0.00,,,0.00,1.000000,,2013-02-16 09:01:00,
2013-02-16 02:11:00,28.0,23.0,-100.00,East,98,3.0,6.0,81,0.00,,,0.00,1.000000,,2013-02-16 09:11:00,
2013-02-16 02:42:00,28.0,22.0,-100.00,East,95,4.0,10.0,78,0.00,,,0.00,1.000000,,2013-02-16 09:42:00,
2013-02-16 02:52:00,28.0,22.0,-100.00,East,95,4.0,10.0,78,0.00,,,0.00,1.000000,,2013-02-16 09:52:00,
2013-02-16 03:01:00,28.0,22.0,-100.00,East,95,4.0,10.0,78,0.00,,,0.00,1.000000,,2013-02-16 10:01:00,
2013-02-16 03:11:00,28.0,22.0,-100.00,East,95,4.0,10.0,78,0.00,,,0.00,1.000000,,2013-02-16 10:11:00,
2013-02-16 03:42:00,28.0,22.0,-100.00,ESE,113,4.0,11.0,79,0.00,,,0.00,1.000000,,2013-02-16 10:42:00,
2013-02-16 03:52:00,28.0,22.0,-100.00,ESE,113,4.0,11.0,79,0.00,,,0.00,1.000000,,2013-02-16 10:52:00,
2013-02-16 04:02:00,28.0,22.0,-100.00,ESE,113,4.0,11.0,79,0.00,,,0.00,1.000000,,2013-02-16 11:02:00,
2013-02-16 04:11:00,28.0,22.0,-100.00,ESE,113,4.0,11.0,79,0.00,,,0.00,1.000000,,2013-02-16 11:11:00,
2013-02-16 04:32:00,27.0,21.0,-100.00,ESE,105,4.0,11.0,79,0.00,,,0.00,1.000000,,2013-02-16 11:32:00,
2013-02-16 04:42:00,27.0,21.0,-100.00,ESE,105,4.0,11.0,79,0.00,,,0.00,1.000000,,2013-02-16 11:42:00,
2013-02-16 04:52:00,27.0,21.0,-100.00,ESE,105,4.0,11.0,79,0.00,,,0.00,1.000000,,2013-02-16 11:52:00,
2013-02-16 05:01:00,27.0,21.0,-100.00,ESE,105,4.0,11.0,79,0.00,,,0.00,1.000000,,2013-02-16 12:01:00,
2013-02-16 05:12:00,27.0,21.0,-100.00,ESE,105,4.0,11.0,79,0.00,,,0.00,1.000000,,2013-02-16 12:12:00,
2013-02-16 05:32:00,28.0,21.0,-100.00,East,90,5.0,11.0,74,0.00,,,0.00,1.000000,,2013-02-16 12:32:00,
2013-02-16 05:42:00,28.0,21.0,-100.00,East,90,5.0,11.0,74,0.00,,,0.00,1.000000,,2013-02-16 12:42:00,
2013-02-16 05:52:00,28.0,21.0,-100.00,East,90,5.0,11.0,74,0.00,,,0.00,1.000000,,2013-02-16 12:52:00,
2013-02-16 06:01:00,28.0,21.0,-100.00,East,90,5.0,11.0,74,0.00,,,0.00,1.000000,,2013-02-16 13:01:00,
2013-02-16 06:11:00,28.0,21.0,-100.00,East,90,5.0,11.0,74,0.00,,,0.00,1.000000,,2013-02-16 13:11:00,
2013-02-16 07:42:00,25.0,20.0,-100.00,ESE,111,4.0,9.0,81,-99.99,,,0.00,1.000000,,2013-02-16 14:42:00,
2013-02-16 07:52:00,25.0,20.0,-100.00,ESE,111,4.0,9.0,81,-99.99,,,0.00,1.000000,,2013-02-16 14:52:00,
2013-02-16 08:01:00,25.0,20.0,-100.00,ESE,111,4.0,9.0,81,-99.99,,,0.00,1.000000,,2013-02-16 15:01:00,
2013-02-16 08:11:00,25.0,20.0,-100.00,ESE,111,4.0,9.0,81,-99.99,,,0.00,1.000000,,2013-02-16 15:11:00,
2013-02-16 08:42:00,25.0,20.0,-100.00,ESE,115,4.0,9.0,80,0.00,,,0.00,1.000000,,2013-02-16 15:42:00,
2013-02-16 08:52:00,25.0,20.0,-100.00,ESE,115,4.0,9.0,80,0.00,,,0.00,1.000000,,2013-02-16 15:52:00,
2013-02-16 09:01:00,25.0,20.0,-100.00,ESE,115,4.0,9.0,80,0.00,,,0.00,1.000000,,2013-02-16 16:01:00,
2013-02-16 09:11:00,25.0,20.0,-100.00,ESE,115,4.0,9.0,80,0.00,,,0.00,1.000000,,2013-02-16 16:11:00,
2013-02-16 09:32:00,26.0,20.0,-100.00,East,91,4.0,10.0,77,0.00,,,0.00,6.000000,,2013-02-16 16:32:00,
2013-02-16 09:42:00,26.0,20.0,-100.00,East,91,4.0,10.0,77,0.00,,,0.00,6.000000,,2013-02-16 16:42:00,
2013-02-16 09:52:00,26.0,20.0,-100.00,East,91,4.0,10.0,77,0.00,,,0.00,6.000000,,2013-02-16 16:52:00,
2013-02-16 10:01:00,26.0,20.0,-100.00,East,91,4.0,10.0,77,0.00,,,0.00,6.000000,,2013-02-16 17:01:00,
2013-02-16 10:11:00,26.0,20.0,-100.00,East,91,4.0,10.0,77,0.00,,,0.00,6.000000,,2013-02-16 17:11:00,
2013-02-16 10:42:00,28.0,20.0,-100.00,East,79,2.0,10.0,73,0.00,,,0.00,16.000000,,2013-02-16 17:42:00,
2013-02-16 10:52:00,28.0,20.0,-100.00,East,79,2.0,10.0,73,0.00,,,0.00,16.000000,,2013-02-16 17:52:00,
2013-02-16 11:01:00,28.0,20.0,-100.00,East,79,2.0,10.0,73,0.00,,,0.00,16.000000,,2013-02-16 18:01:00,
2013-02-16 11:11:00,28.0,20.0,-100.00,East,79,2.0,10.0,73,0.00,,,0.00,16.000000,,2013-02-16 18:11:00,
2013-02-16 11:33:00,36.0,21.0,-100.00,NNW,348,4.0,10.0,55,0.00,,,-99.99,189.000000,,2013-02-16 18:33:00,
2013-02-16 11:42:00,36.0,21.0,-100.00,NNW,348,4.0,10.0,55,0.00,,,-99.99,189.000000,,2013-02-16 18:42:00,
2013-02-16 11:52:00,36.0,21.0,-100.00,NNW,348,4.0,10.0,55,0.00,,,-99.99,189.000000,,2013-02-16 18:52:00,
2013-02-16 12:02:00,36.0,21.0,-100.00,NNW,348,4.0,10.0,55,0.00,,,-99.99,189.000000,,2013-02-16 19:02:00,
2013-02-16 12:11:00,36.0,21.0,-100.00,NNW,348,4.0,10.0,55,0.00,,,-99.99,189.000000,,2013-02-16 19:11:00,
2013-02-16 12:42:00,46.0,24.0,-100.00,West,272,2.0,8.0,42,0.00,,,0.00,440.000000,,2013-02-16 19:42:00,
2013-02-16 12:52:00,46.0,24.0,-100.00,West,272,2.0,8.0,42,0.00,,,0.00,440.000000,,2013-02-16 19:52:00,
2013-02-16 13:01:00,46.0,24.0,-100.00,West,272,2.0,8.0,42,0.00,,,0.00,440.000000,,2013-02-16 20:01:00,
2013-02-16 13:11:00,46.0,24.0,-100.00,West,272,2.0,8.0,42,0.00,,,0.00,440.000000,,2013-02-16 20:11:00,
2013-02-16 13:42:00,52.0,25.0,-100.00,NNE,32,6.0,13.0,35,0.00,,,0.00,495.000000,,2013-02-16 20:42:00,
2013-02-16 13:52:00,52.0,25.0,-100.00,NNE,32,6.0,13.0,35,0.00,,,0.00,495.000000,,2013-02-16 20:52:00,
2013-02-16 14:02:00,52.0,25.0,-100.00,NNE,32,6.0,13.0,35,0.00,,,0.00,495.000000,,2013-02-16 21:02:00,
2013-02-16 14:11:00,52.0,25.0,-100.00,NNE,32,6.0,13.0,35,0.00,,,0.00,495.000000,,2013-02-16 21:11:00,
2013-02-16 14:42:00,51.0,25.0,-100.00,North,7,5.0,15.0,36,0.00,,,0.00,444.000000,,2013-02-16 21:42:00,
2013-02-16 14:52:00,51.0,25.0,-100.00,North,7,5.0,15.0,36,0.00,,,0.00,444.000000,,2013-02-16 21:52:00,
2013-02-16 15:01:00,51.0,25.0,-100.00,North,7,5.0,15.0,36,0.00,,,0.00,444.000000,,2013-02-16 22:01:00,
2013-02-16 15:11:00,51.0,25.0,-100.00,North,7,5.0,15.0,36,0.00,,,0.00,444.000000,,2013-02-16 22:11:00,
2013-02-16 15:32:00,56.0,26.0,-100.00,NE,35,6.0,17.0,31,0.00,,,0.00,582.000000,,2013-02-16 22:32:00,
2013-02-16 15:42:00,56.0,26.0,-100.00,NE,35,6.0,17.0,31,0.00,,,0.00,582.000000,,2013-02-16 22:42:00,
2013-02-16 15:52:00,56.0,26.0,-100.00,NE,35,6.0,17.0,31,0.00,,,0.00,582.000000,,2013-02-16 22:52:00,
2013-02-16 16:02:00,56.0,26.0,-100.00,NE,35,6.0,17.0,31,0.00,,,0.00,582.000000,,2013-02-16 23:02:00,
2013-02-16 16:32:00,56.0,23.0,-100.00,North,5,5.0,15.0,27,-99.99,,,0.00,537.000000,,2013-02-16 23:32:00,
2013-02-16 16:42:00,56.0,23.0,-100.00,North,5,5.0,15.0,27,-99.99,,,0.00,537.000000,,2013-02-16 23:42:00,
2013-02-16 16:52:00,56.0,23.0,-100.00,North,5,5.0,15.0,27,-99.99,,,0.00,537.000000,,2013-02-16 23:52:00,
2013-02-16 17:02:00,56.0,23.0,-100.00,North,5,5.0,15.0,27,-99.99,,,0.00,537.000000,,2013-02-17 00:02:00,
2013-02-16 17:11:00,56.0,23.0,-100.00,North,5,5.0,15.0,27,-99.99,,,0.00,537.000000,,2013-02-17 00:11:00,
2013-02-16 17:32:00,52.0,22.0,-100.00,NE,34,5.0,14.0,31,0.00,,,0.00,272.000000,,2013-02-17 00:32:00,
2013-02-16 17:42:00,52.0,22.0,-100.00,NE,34,5.0,14.0,31,0.00,,,0.00,272.000000,,2013-02-17 00:42:00,
2013-02-16 17:52:00,52.0,22.0,-100.00,NE,34,5.0,14.0,31,0.00,,,0.00,272.000000,,2013-02-17 00:52:00,
2013-02-16 18:01:00,52.0,22.0,-100.00,NE,34,5.0,14.0,31,0.00,,,0.00,272.000000,,2013-02-17 01:01:00,
2013-02-16 19:42:00,42.0,24.0,-100.00,ESE,121,3.0,9.0,48,-99.99,,,0.00,18.000000,,2013-02-17 02:42:00,
2013-02-16 19:52:00,42.0,24.0,-100.00,ESE,121,3.0,9.0,48,-99.99,,,0.00,18.000000,,2013-02-17 02:52:00,
2013-02-16 20:01:00,42.0,24.0,-100.00,ESE,121,3.0,9.0,48,-99.99,,,0.00,18.000000,,2013-02-17 03:01:00,
2013-02-16 20:11:00,42.0,24.0,-100.00,ESE,121,3.0,9.0,48,-99.99,,,0.00,18.000000,,2013-02-17 03:11:00,
2013-02-16 20:32:00,37.0,25.0,-100.00,SSE,154,1.0,6.0,62,0.00,,,0.00,1.000000,,2013-02-17 03:32:00,
2013-02-16 20:42:00,37.0,25.0,-100.00,SSE,154,1.0,6.0,62,0.00,,,0.00,1.000000,,2013-02-17 03:42:00,
2013-02-16 20:52:00,37.0,25.0,-100.00,SSE,154,1.0,6.0,62,0.00,,,0.00,1.000000,,2013-02-17 03:52:00,
2013-02-16 21:01:00,37.0,25.0,-100.00,SSE,154,1.0,6.0,62,0.00,,,0.00,1.000000,,2013-02-17 04:01:00,
2013-02-16 21:11:00,37.0,25.0,-100.00,SSE,154,1.0,6.0,62,0.00,,,0.00,1.000000,,2013-02-17 04:11:00,
2013-02-16 21:42:00,34.0,24.0,-100.00,SSE,150,1.0,4.0,66,0.00,,,0.00,1.000000,,2013-02-17 04:42:00,
2013-02-16 21:52:00,34.0,24.0,-100.00,SSE,150,1.0,4.0,66,0.00,,,0.00,1.000000,,2013-02-17 04:52:00,
2013-02-16 22:01:00,34.0,24.0,-100.00,SSE,150,1.0,4.0,66,0.00,,,0.00,1.000000,,2013-02-17 05:01:00,
2013-02-16 22:11:00,34.0,24.0,-100.00,SSE,150,1.0,4.0,66,0.00,,,0.00,1.000000,,2013-02-17 05:11:00,
2013-02-16 22:42:00,36.0,24.0,-100.00,East,86,3.0,7.0,61,0.00,,,-99.99,1.000000,,2013-02-17 05:42:00,
2013-02-16 22:52:00,36.0,24.0,-100.00,East,86,3.0,7.0,61,0.00,,,-99.99,1.000000,,2013-02-17 05:52:00,
2013-02-16 23:02:00,36.0,24.0,-100.00,East,86,3.0,7.0,61,0.00,,,-99.99,1.000000,,2013-02-17 06:02:00,
2013-02-16 23:11:00,36.0,24.0,-100.00,East,86,3.0,7.0,61,0.00,,,-99.99,1.000000,,2013-02-17 06:11:00,
2013-02-16 23:42:00,33.0,31.0,-100.00,ENE,71,2.0,17.0,93,0.01,,,0.01,1.000000,,2013-02-17 06:42:00,
2013-02-16 23:52:00,33.0,31.0,-100.00,ENE,71,2.0,17.0,93,0.01,,,0.01,1.000000,,2013-02-17 06:52:00,